Tracking 29892 objects as of 21-Nov-2024
HD Live streaming from Space Station
objects crossing your sky now

CZ-6A DEB

Track CZ-6A DEB now!
10-day predictions


NORAD ID: 56236
Int'l Code: 2022-151ABC
Perigee: 719.1 km
Apogee: 827.3 km
Inclination: 98.6 °
Period: 100.2 minutes
Semi major axis: 7144 km
RCS: Unknown
Launch date: November 11, 2022
Source: People's Republic of China (PRC)
Launch site: Taiyaun Space Center, China (TSC)

Note: This is SATELLITE DEBRIS
Your satellite tracking list
Your tracking list is empty




NASA's NSSDC Master Catalog

Two Line Element Set (TLE):
1 56236U 22151ABC 24324.00807831  .00006910  00000-0  22361-2 0  9997
2 56236  98.6308 334.5172 0075694 308.4117  51.0289 14.37706617 93748
Source of the keplerian elements: AFSPC